Torna al catalogo

COSMOS 1375 DEB

AttivoLEO
NORAD 16204·DEBRIS·🇷🇺 Russia

Lanciato Jun 6, 1982 da Plesetsk Cosmodrome

Loading…

Prossimi Passaggi (prossime 24 ore)

TLE

AggiornatoSource: Space-Track

Epoca: Sep 14, 2026, 10:30 UTC

1 16204U 82055F   26257.43768899 -.00000067  00000-0  14322-4 0  9999
2 16204  65.8313 244.6494 0015138  61.0210  95.1563 13.80042483 60077

Traccia COSMOS 1375 DEB in tempo reale con AllMySat

Download on the App Store